Location: A�t Bou Chrif
(32.7193°N, 5.2385°W)
Time: 03:39:43
(UTC+00:00)

Cosmos 1818 - Pass Details

Date: 08 August 2020
Orbit: 776 x 797 km, 65.0° (Epoch: 20 September)

Event Time Altitude Azimuth Distance (km) Brightness Sun altitude
Rises 21:45:41 0° 330° (NNW) 3,303 7.9 -28.1°
Reaches altitude 10° 21:48:07 10° 329° (NNW) 2,370 6.9 -28.5°
Enters shadow 21:53:03 71° 297° (WNW) 842 3.7 -29.2°
